Location: Dampvalley
(47.9094°N, 6.1967°E)
Time: 02:23:23
(UTC+00:00)

N. Korean satellite - Pass Details

Date: 07 December 2022
Orbit: 408 x 444 km, 97.3° (Epoch: 28 January)

Event Time Altitude Azimuth Distance (km) Brightness Sun altitude
Rises 04:34:03 0° 19° (NNE) 2,511 10.3 -25.2°
Reaches altitude 10° 04:36:13 10° 27° (NNE) 1,623 9.4 -24.8°
Maximum altitude 04:39:31 39° 98° (E) 698 7.8 -24.3°
Drops below altitude 10° 04:42:44 10° 169° (S) 1,582 9.4 -23.8°
Sets 04:44:49 0° 177° (S) 2,438 10.3 -23.4°
